Location: B?jaj?g
(11.7167°N, 92.6667°E)
Time: 23:27:48
(UTC+00:00)

PAYLOAD A - Pass Details

Date: 18 September 2020
Orbit: 604 x 36062 km, 8.1° (Epoch: 29 October)

Event Time Altitude Azimuth Distance (km) Brightness Sun altitude
Exits shadow 22:09:50 34° 205° (SSW) 1,203 4.2 -22.5°
Maximum altitude 22:11:03 43° 164° (SSE) 1,184 4.5 -22.2°
Drops below altitude 10° 22:19:48 10° 94° (E) 4,841 8.8 -20.1°
Sets 22:28:15 0° 89° (E) 8,473 10.6 -18.0°
